Estación de Combarbala

Ultimos registro cada 15 minutos 30
Estación Fecha / Hora Temperatura Humedad Lluvia Velocidad Dirección Radiación Presion
30 Combarbala 06-05-2026 07:15 10,5 65,6 0 0 219 1,9 912,1
29 Combarbala 06-05-2026 07:00 10,1 67,2 0 0 219 0,6 911,9
28 Combarbala 06-05-2026 06:45 10 66,6 0 0 219 0,6 911,6
27 Combarbala 06-05-2026 06:30 11,3 60,6 0 0,5 218 0,6 911,3
26 Combarbala 06-05-2026 06:15 11,9 60,5 0 0 153 0,6 911
25 Combarbala 06-05-2026 06:00 11,4 60,1 0 0 149 0,6 910,6
24 Combarbala 06-05-2026 05:45 11,8 56,9 0 1 135 0,6 910,5
23 Combarbala 06-05-2026 05:30 14 54,7 0 1 121 0,6 910,3
22 Combarbala 06-05-2026 05:15 13,7 56,5 0 1 121 0,6 910,4
21 Combarbala 06-05-2026 05:00 12,2 60,2 0 0,5 112 0,6 910,5
20 Combarbala 06-05-2026 04:45 10,8 65,4 0 0 110 0,6 910,7
19 Combarbala 06-05-2026 04:30 11,1 64 0 0 110 0,6 910,8
18 Combarbala 06-05-2026 04:15 10,5 66,6 0 0 110 0,6 910,7
17 Combarbala 06-05-2026 04:00 10,2 65,7 0 0 110 0,6 910,3
16 Combarbala 06-05-2026 03:45 11,3 61,4 0 0 110 0,6 910,3
15 Combarbala 06-05-2026 03:30 11,5 63,5 0 0 110 0,6 910,2
14 Combarbala 06-05-2026 03:15 12,1 62 0 1 110 0,6 910,3
13 Combarbala 06-05-2026 03:00 11,2 64 0 0,5 166 0,6 910,4
12 Combarbala 06-05-2026 02:45 10,6 65,4 0 0 234 0,6 910,3
11 Combarbala 06-05-2026 02:30 11,1 64,2 0 0 202 0,6 910,4
10 Combarbala 06-05-2026 02:15 11,6 63,1 0 0 101 0,6 910,2
9 Combarbala 06-05-2026 02:00 12 62,4 0 0 101 0,6 910
8 Combarbala 06-05-2026 01:45 11,6 61,9 0 0 101 0,6 910,1
7 Combarbala 06-05-2026 01:30 12,2 62,1 0 0 101 0,6 910,1
6 Combarbala 06-05-2026 01:15 12,4 62 0 0 97 0,6 910,1
5 Combarbala 06-05-2026 01:00 12,9 60,2 0 0 49 0,6 910,1
4 Combarbala 06-05-2026 00:45 12,9 60 0 0 49 0,6 910,3
3 Combarbala 06-05-2026 00:30 12,4 60,8 0 0 49 0,6 910,5
2 Combarbala 06-05-2026 00:15 12,4 60,9 0 0 49 0,6 910,5
1 Combarbala 06-05-2026 00:00 12,6 59,8 0 0 49 0,6 910,5